Year,Month,Day,Hour,Minute,Value (Times are PST for temperature in C)
2010,08,14,00,00,18.30
2010,08,14,00,01,18.30
2010,08,14,00,02,18.30
2010,08,14,00,03,18.30
2010,08,14,00,04,18.20
2010,08,14,00,05,18.20
2010,08,14,00,06,18.20
2010,08,14,00,07,18.20
2010,08,14,00,08,18.10
2010,08,14,00,09,18.10
2010,08,14,00,10,18.10
2010,08,14,00,11,18.00
2010,08,14,00,12,18.00
2010,08,14,00,13,18.00
2010,08,14,00,14,17.90
2010,08,14,00,15,17.90
2010,08,14,00,16,17.90
2010,08,14,00,17,17.90
2010,08,14,00,18,17.90
2010,08,14,00,19,17.90
2010,08,14,00,20,17.90
2010,08,14,00,21,17.90
2010,08,14,00,22,17.90
2010,08,14,00,23,17.90
2010,08,14,00,24,17.90
2010,08,14,00,25,17.90
2010,08,14,00,26,17.90
2010,08,14,00,27,17.90
2010,08,14,00,28,17.90
2010,08,14,00,29,17.90
2010,08,14,00,30,17.90
2010,08,14,00,31,17.90
2010,08,14,00,32,17.90
2010,08,14,00,33,17.90
2010,08,14,00,34,17.90
2010,08,14,00,35,17.90
2010,08,14,00,36,17.90
2010,08,14,00,37,17.90
2010,08,14,00,38,17.80
2010,08,14,00,39,17.80
2010,08,14,00,40,17.80
2010,08,14,00,41,17.80
2010,08,14,00,42,17.80
2010,08,14,00,43,17.80
2010,08,14,00,44,17.80
2010,08,14,00,45,17.80
2010,08,14,00,46,17.80
2010,08,14,00,47,17.80
2010,08,14,00,48,17.70
2010,08,14,00,49,17.70
2010,08,14,00,50,17.70
2010,08,14,00,51,17.70
2010,08,14,00,52,17.70
2010,08,14,00,53,17.60
2010,08,14,00,54,17.60
2010,08,14,00,55,17.60
2010,08,14,00,56,17.60
2010,08,14,00,57,17.60
2010,08,14,00,58,17.50
2010,08,14,00,59,17.50
2010,08,14,01,00,17.40
2010,08,14,01,01,17.40
2010,08,14,01,02,17.40
2010,08,14,01,03,17.30
2010,08,14,01,04,17.30
2010,08,14,01,05,17.30
2010,08,14,01,06,17.30
2010,08,14,01,07,17.30
2010,08,14,01,08,17.30
2010,08,14,01,09,17.30
2010,08,14,01,10,17.30
2010,08,14,01,11,17.30
2010,08,14,01,12,17.30
2010,08,14,01,13,17.20
2010,08,14,01,14,17.20
2010,08,14,01,15,17.20
2010,08,14,01,16,17.20
2010,08,14,01,17,17.20
2010,08,14,01,18,17.20
2010,08,14,01,19,17.20
2010,08,14,01,20,17.20
2010,08,14,01,21,17.20
2010,08,14,01,22,17.20
2010,08,14,01,23,17.20
2010,08,14,01,24,17.20
2010,08,14,01,25,17.20
2010,08,14,01,26,17.20
2010,08,14,01,27,17.20
2010,08,14,01,28,17.20
2010,08,14,01,29,17.20
2010,08,14,01,30,17.20
2010,08,14,01,31,17.10
2010,08,14,01,32,17.10
2010,08,14,01,33,17.10
2010,08,14,01,34,17.00
2010,08,14,01,35,16.90
2010,08,14,01,36,16.90
2010,08,14,01,37,16.80
2010,08,14,01,38,16.80
2010,08,14,01,39,16.80
2010,08,14,01,40,16.80
2010,08,14,01,41,16.70
2010,08,14,01,42,16.70
2010,08,14,01,43,16.70
2010,08,14,01,44,16.70
2010,08,14,01,45,16.70
2010,08,14,01,46,16.70
2010,08,14,01,47,16.70
2010,08,14,01,48,16.70
2010,08,14,01,49,16.70
2010,08,14,01,50,16.70
2010,08,14,01,51,16.70
2010,08,14,01,52,16.80
2010,08,14,01,53,16.80
2010,08,14,01,54,16.80
2010,08,14,01,55,16.80
2010,08,14,01,56,16.80
2010,08,14,01,57,16.90
2010,08,14,01,58,16.90
2010,08,14,01,59,16.90
2010,08,14,02,00,16.90
2010,08,14,02,01,16.90
2010,08,14,02,02,16.90
2010,08,14,02,03,16.90
2010,08,14,02,04,16.90
2010,08,14,02,05,16.90
2010,08,14,02,06,16.90
2010,08,14,02,07,16.90
2010,08,14,02,08,16.90
2010,08,14,02,09,16.90
2010,08,14,02,10,16.90
2010,08,14,02,11,16.90
2010,08,14,02,12,16.90
2010,08,14,02,13,16.90
2010,08,14,02,14,17.00
2010,08,14,02,15,17.10
2010,08,14,02,16,17.20
2010,08,14,02,17,17.30
2010,08,14,02,18,17.40
2010,08,14,02,19,17.50
2010,08,14,02,20,17.60
2010,08,14,02,21,17.70
2010,08,14,02,22,17.90
2010,08,14,02,23,18.00
2010,08,14,02,24,18.30
2010,08,14,02,25,18.50
2010,08,14,02,26,18.70
2010,08,14,02,27,18.90
2010,08,14,02,28,19.00
2010,08,14,02,29,19.20
2010,08,14,02,30,19.40
2010,08,14,02,31,19.50
2010,08,14,02,32,19.70
2010,08,14,02,33,19.70
2010,08,14,02,34,19.80
2010,08,14,02,35,19.80
2010,08,14,02,36,19.90
2010,08,14,02,37,20.00
2010,08,14,02,38,20.10
2010,08,14,02,39,20.10
2010,08,14,02,40,20.10
2010,08,14,02,41,20.20
2010,08,14,02,42,20.20
2010,08,14,02,43,20.30
2010,08,14,02,44,20.30
2010,08,14,02,45,20.30
2010,08,14,02,46,20.30
2010,08,14,02,47,20.30
2010,08,14,02,48,20.30
2010,08,14,02,49,20.40
2010,08,14,02,50,20.40
2010,08,14,02,51,20.40
2010,08,14,02,52,20.40
2010,08,14,02,53,20.40
2010,08,14,02,54,20.40
2010,08,14,02,55,20.40
2010,08,14,02,56,20.40
2010,08,14,02,57,20.40
2010,08,14,02,58,20.40
2010,08,14,02,59,20.40
2010,08,14,03,00,20.40
2010,08,14,03,01,20.40
2010,08,14,03,02,20.30
2010,08,14,03,03,20.30
2010,08,14,03,04,20.30
2010,08,14,03,05,20.20
2010,08,14,03,06,20.20
2010,08,14,03,07,20.10
2010,08,14,03,08,20.00
2010,08,14,03,09,20.00
2010,08,14,03,10,19.90
2010,08,14,03,11,19.90
2010,08,14,03,12,19.80
2010,08,14,03,13,19.80
2010,08,14,03,14,19.80
2010,08,14,03,15,19.70
2010,08,14,03,16,19.70
2010,08,14,03,17,19.70
2010,08,14,03,18,19.60
2010,08,14,03,19,19.60
2010,08,14,03,20,19.60
2010,08,14,03,21,19.50
2010,08,14,03,22,19.50
2010,08,14,03,23,19.40
2010,08,14,03,24,19.40
2010,08,14,03,25,19.40
2010,08,14,03,26,19.40
2010,08,14,03,27,19.30
2010,08,14,03,28,19.30
2010,08,14,03,29,19.30
2010,08,14,03,30,19.30
2010,08,14,03,31,19.30
2010,08,14,03,32,19.30
2010,08,14,03,33,19.30
2010,08,14,03,34,19.30
2010,08,14,03,35,19.30
2010,08,14,03,36,19.30
2010,08,14,03,37,19.20
2010,08,14,03,38,19.30
2010,08,14,03,39,19.20
2010,08,14,03,40,19.20
2010,08,14,03,41,19.20
2010,08,14,03,42,19.20
2010,08,14,03,43,19.20
2010,08,14,03,44,19.30
2010,08,14,03,45,19.30
2010,08,14,03,46,19.20
2010,08,14,03,47,19.20
2010,08,14,03,48,19.20
2010,08,14,03,49,19.20
2010,08,14,03,50,19.20
2010,08,14,03,51,19.20
2010,08,14,03,52,19.20
2010,08,14,03,53,19.30
2010,08,14,03,54,19.30
2010,08,14,03,55,19.30
2010,08,14,03,56,19.30
2010,08,14,03,57,19.30
2010,08,14,03,58,19.40
2010,08,14,03,59,19.50
2010,08,14,04,00,19.50
2010,08,14,04,01,19.60
2010,08,14,04,02,19.70
2010,08,14,04,03,19.80
2010,08,14,04,04,19.90
2010,08,14,04,05,20.00
2010,08,14,04,06,20.10
2010,08,14,04,07,20.20
2010,08,14,04,08,20.30
2010,08,14,04,09,20.30
2010,08,14,04,10,20.40
2010,08,14,04,11,20.40
2010,08,14,04,12,20.50
2010,08,14,04,13,20.50
2010,08,14,04,14,20.50
2010,08,14,04,15,20.60
2010,08,14,04,16,20.60
2010,08,14,04,17,20.60
2010,08,14,04,18,20.60
2010,08,14,04,19,20.60
2010,08,14,04,20,20.60
2010,08,14,04,21,20.60
2010,08,14,04,22,20.60
2010,08,14,04,23,20.60
2010,08,14,04,24,20.70
2010,08,14,04,25,20.70
2010,08,14,04,26,20.70
2010,08,14,04,27,20.80
2010,08,14,04,28,20.80
2010,08,14,04,29,20.80
2010,08,14,04,30,20.80
2010,08,14,04,31,20.90
2010,08,14,04,32,20.90
2010,08,14,04,33,20.90
2010,08,14,04,34,20.90
2010,08,14,04,35,20.90
2010,08,14,04,36,20.90
2010,08,14,04,37,20.90
2010,08,14,04,38,20.90
2010,08,14,04,39,20.90
2010,08,14,04,40,20.90
2010,08,14,04,41,20.90
2010,08,14,04,42,20.90
2010,08,14,04,43,20.80
2010,08,14,04,44,20.80
2010,08,14,04,45,20.80
2010,08,14,04,46,20.80
2010,08,14,04,47,20.70
2010,08,14,04,48,20.70
2010,08,14,04,49,20.70
2010,08,14,04,50,20.70
2010,08,14,04,51,20.70
2010,08,14,04,52,20.70
2010,08,14,04,53,20.80
2010,08,14,04,54,20.80
2010,08,14,04,55,20.80
2010,08,14,04,56,20.80
2010,08,14,04,57,20.80
2010,08,14,04,58,20.90
2010,08,14,04,59,20.90
2010,08,14,05,00,20.90
2010,08,14,05,01,20.80
2010,08,14,05,02,20.80
2010,08,14,05,03,20.80
2010,08,14,05,04,20.80
2010,08,14,05,05,20.90
2010,08,14,05,06,20.90
2010,08,14,05,07,20.90
2010,08,14,05,08,20.90
2010,08,14,05,09,20.90
2010,08,14,05,10,20.90
2010,08,14,05,11,20.90
2010,08,14,05,12,20.90
2010,08,14,05,13,20.90
2010,08,14,05,14,20.90
2010,08,14,05,15,21.00
2010,08,14,05,16,21.00
2010,08,14,05,17,21.00
2010,08,14,05,18,21.00
2010,08,14,05,19,21.00
2010,08,14,05,20,21.10
2010,08,14,05,21,21.10
2010,08,14,05,22,21.10
2010,08,14,05,23,21.10
2010,08,14,05,24,21.10
2010,08,14,05,25,21.10
2010,08,14,05,26,21.10
2010,08,14,05,27,21.20
2010,08,14,05,28,21.20
2010,08,14,05,29,21.20
2010,08,14,05,30,21.20
2010,08,14,05,31,21.20
2010,08,14,05,32,21.20
2010,08,14,05,33,21.20
2010,08,14,05,34,21.10
2010,08,14,05,35,21.10
2010,08,14,05,36,21.10
2010,08,14,05,37,21.10
2010,08,14,05,38,21.10
2010,08,14,05,39,21.00
2010,08,14,05,40,21.00
2010,08,14,05,41,20.90
2010,08,14,05,42,20.90
2010,08,14,05,43,20.90
2010,08,14,05,44,20.80
2010,08,14,05,45,20.80
2010,08,14,05,46,20.70
2010,08,14,05,47,20.70
2010,08,14,05,48,20.60
2010,08,14,05,49,20.60
2010,08,14,05,50,20.50
2010,08,14,05,51,20.50
2010,08,14,05,52,20.40
2010,08,14,05,53,20.30
2010,08,14,05,54,20.30
2010,08,14,05,55,20.20
2010,08,14,05,56,20.20
2010,08,14,05,57,20.20
2010,08,14,05,58,20.10
2010,08,14,05,59,20.10
2010,08,14,06,00,20.10
2010,08,14,06,01,20.10
2010,08,14,06,02,20.10
2010,08,14,06,03,20.20
2010,08,14,06,04,20.20
2010,08,14,06,05,20.20
2010,08,14,06,06,20.30
2010,08,14,06,07,20.30
2010,08,14,06,08,20.30
2010,08,14,06,09,20.30
2010,08,14,06,10,20.30
2010,08,14,06,11,20.20
2010,08,14,06,12,20.20
2010,08,14,06,13,20.20
2010,08,14,06,14,20.20
2010,08,14,06,15,20.30
2010,08,14,06,16,20.30
2010,08,14,06,17,20.20
2010,08,14,06,18,20.20
2010,08,14,06,19,20.20
2010,08,14,06,20,20.20
2010,08,14,06,21,20.20
2010,08,14,06,22,20.20
2010,08,14,06,23,20.20
2010,08,14,06,24,20.20
2010,08,14,06,25,20.30
2010,08,14,06,26,20.30
2010,08,14,06,27,20.30
2010,08,14,06,28,20.30
2010,08,14,06,29,20.30
2010,08,14,06,30,20.30
2010,08,14,06,31,20.30
2010,08,14,06,32,20.30
2010,08,14,06,33,20.40
2010,08,14,06,34,20.40
2010,08,14,06,35,20.50
2010,08,14,06,36,20.50
2010,08,14,06,37,20.60
2010,08,14,06,38,20.60
2010,08,14,06,39,20.60
2010,08,14,06,40,20.70
2010,08,14,06,41,20.70
2010,08,14,06,42,20.70
2010,08,14,06,43,20.80
2010,08,14,06,44,20.80
2010,08,14,06,45,20.80
2010,08,14,06,46,20.80
2010,08,14,06,47,20.80
2010,08,14,06,48,20.80
2010,08,14,06,49,20.80
2010,08,14,06,50,20.90
2010,08,14,06,51,20.90
2010,08,14,06,52,20.90
2010,08,14,06,53,21.00
2010,08,14,06,54,21.00
2010,08,14,06,55,21.10
2010,08,14,06,56,21.10
2010,08,14,06,57,21.20
2010,08,14,06,58,21.20
2010,08,14,06,59,21.20
2010,08,14,07,00,21.10
2010,08,14,07,01,21.10
2010,08,14,07,02,21.00
2010,08,14,07,03,20.90
2010,08,14,07,04,20.90
2010,08,14,07,05,20.90
2010,08,14,07,06,20.80
2010,08,14,07,07,20.80
2010,08,14,07,08,20.80
2010,08,14,07,09,20.90
2010,08,14,07,10,20.90
2010,08,14,07,11,20.90
2010,08,14,07,12,20.90
2010,08,14,07,13,20.80
2010,08,14,07,14,20.80
2010,08,14,07,15,20.80
2010,08,14,07,16,20.80
2010,08,14,07,17,20.90
2010,08,14,07,18,20.90
2010,08,14,07,19,20.90
2010,08,14,07,20,20.90
2010,08,14,07,21,20.90
2010,08,14,07,22,20.90
2010,08,14,07,23,20.90
2010,08,14,07,24,20.90
2010,08,14,07,25,20.90
2010,08,14,07,26,20.90
2010,08,14,07,27,20.90
2010,08,14,07,28,20.90
2010,08,14,07,29,20.90
2010,08,14,07,30,20.90
2010,08,14,07,31,20.90
2010,08,14,07,32,20.90
2010,08,14,07,33,20.90
2010,08,14,07,34,21.00
2010,08,14,07,35,21.10
2010,08,14,07,36,21.10
2010,08,14,07,37,21.10
2010,08,14,07,38,21.20
2010,08,14,07,39,21.20
2010,08,14,07,40,21.30
2010,08,14,07,41,21.30
2010,08,14,07,42,21.30
2010,08,14,07,43,21.30
2010,08,14,07,44,21.40
2010,08,14,07,45,21.40
2010,08,14,07,46,21.40
2010,08,14,07,47,21.50
2010,08,14,07,48,21.50
2010,08,14,07,49,21.60
2010,08,14,07,50,21.60
2010,08,14,07,51,21.70
2010,08,14,07,52,21.70
2010,08,14,07,53,21.70
2010,08,14,07,54,21.80
2010,08,14,07,55,21.80
2010,08,14,07,56,21.90
2010,08,14,07,57,22.00
2010,08,14,07,58,22.00
2010,08,14,07,59,22.10
2010,08,14,08,00,22.20
2010,08,14,08,01,22.30
2010,08,14,08,02,22.30
2010,08,14,08,03,22.40
2010,08,14,08,04,22.50
2010,08,14,08,05,22.60
2010,08,14,08,06,22.70
2010,08,14,08,07,22.80
2010,08,14,08,08,22.90
2010,08,14,08,09,23.00
2010,08,14,08,10,23.10
2010,08,14,08,11,23.20
2010,08,14,08,12,23.30
2010,08,14,08,13,23.40
2010,08,14,08,14,23.40
2010,08,14,08,15,23.50
2010,08,14,08,16,23.60
2010,08,14,08,17,23.60
2010,08,14,08,18,23.70
2010,08,14,08,19,23.80
2010,08,14,08,20,23.80
2010,08,14,08,21,23.90
2010,08,14,08,22,24.00
2010,08,14,08,23,24.00
2010,08,14,08,24,24.10
2010,08,14,08,25,24.20
2010,08,14,08,26,24.20
2010,08,14,08,27,24.30
2010,08,14,08,28,24.30
2010,08,14,08,29,24.30
2010,08,14,08,30,24.40
2010,08,14,08,31,24.40
2010,08,14,08,32,24.50
2010,08,14,08,33,24.50
2010,08,14,08,34,24.60
2010,08,14,08,35,24.60
2010,08,14,08,36,24.70
2010,08,14,08,37,24.70
2010,08,14,08,38,24.70
2010,08,14,08,39,24.70
2010,08,14,08,40,24.70
2010,08,14,08,41,24.70
2010,08,14,08,42,24.70
2010,08,14,08,43,24.60
2010,08,14,08,44,24.60
2010,08,14,08,45,24.60
2010,08,14,08,46,24.60
2010,08,14,08,47,24.50
2010,08,14,08,48,24.50
2010,08,14,08,49,24.40
2010,08,14,08,50,24.40
2010,08,14,08,51,24.40
2010,08,14,08,52,24.30
2010,08,14,08,53,24.30
2010,08,14,08,54,24.30
2010,08,14,08,55,24.20
2010,08,14,08,56,24.20
2010,08,14,08,57,24.20
2010,08,14,08,58,24.10
2010,08,14,08,59,24.10
2010,08,14,09,00,24.00
2010,08,14,09,01,24.00
2010,08,14,09,02,23.90
2010,08,14,09,03,23.90
2010,08,14,09,04,24.00
2010,08,14,09,05,24.00
2010,08,14,09,06,24.00
2010,08,14,09,07,23.90
2010,08,14,09,08,23.90
2010,08,14,09,09,23.90
2010,08,14,09,10,23.90
2010,08,14,09,11,23.90
2010,08,14,09,12,23.90
2010,08,14,09,13,23.90
2010,08,14,09,14,23.90
2010,08,14,09,15,24.00
2010,08,14,09,16,24.00
2010,08,14,09,17,24.10
2010,08,14,09,18,24.10
2010,08,14,09,19,24.10
2010,08,14,09,20,24.10
2010,08,14,09,21,24.10
2010,08,14,09,22,24.20
2010,08,14,09,23,24.20
2010,08,14,09,24,24.20
2010,08,14,09,25,24.30
2010,08,14,09,26,24.30
2010,08,14,09,27,24.30
2010,08,14,09,28,24.40
2010,08,14,09,29,24.40
2010,08,14,09,30,24.40
2010,08,14,09,31,24.40
2010,08,14,09,32,24.40
2010,08,14,09,33,24.40
2010,08,14,09,34,24.40
2010,08,14,09,35,24.40
2010,08,14,09,36,24.50
2010,08,14,09,37,24.50
2010,08,14,09,38,24.60
2010,08,14,09,39,24.60
2010,08,14,09,40,24.70
2010,08,14,09,41,24.70
2010,08,14,09,42,24.80
2010,08,14,09,43,24.80
2010,08,14,09,44,24.80
2010,08,14,09,45,24.80
2010,08,14,09,46,24.80
2010,08,14,09,47,24.90
2010,08,14,09,48,24.90
2010,08,14,09,49,24.90
2010,08,14,09,50,24.90
2010,08,14,09,51,24.90
2010,08,14,09,52,24.90
2010,08,14,09,53,25.00
2010,08,14,09,54,25.00
2010,08,14,09,55,25.00
2010,08,14,09,56,25.10
2010,08,14,09,57,25.10
2010,08,14,09,58,25.20
2010,08,14,09,59,25.20
2010,08,14,10,00,25.20
2010,08,14,10,01,25.20
2010,08,14,10,02,25.20
2010,08,14,10,03,25.20
2010,08,14,10,04,25.20
2010,08,14,10,05,25.20
2010,08,14,10,06,25.20
2010,08,14,10,07,25.20
2010,08,14,10,08,25.20
2010,08,14,10,09,25.20
2010,08,14,10,10,25.20
2010,08,14,10,11,25.20
2010,08,14,10,12,25.20
2010,08,14,10,13,25.30
2010,08,14,10,14,25.30
2010,08,14,10,15,25.30
2010,08,14,10,16,25.40
2010,08,14,10,17,25.40
2010,08,14,10,18,25.40
2010,08,14,10,19,25.40
2010,08,14,10,20,25.40
2010,08,14,10,21,25.40
2010,08,14,10,22,25.40
2010,08,14,10,23,25.40
2010,08,14,10,24,25.30
2010,08,14,10,25,25.30
2010,08,14,10,26,25.20
2010,08,14,10,27,25.20
2010,08,14,10,28,25.20
2010,08,14,10,29,25.20
2010,08,14,10,30,25.20
2010,08,14,10,31,25.30
2010,08,14,10,32,25.30
2010,08,14,10,33,25.40
2010,08,14,10,34,25.40
2010,08,14,10,35,25.50
2010,08,14,10,36,25.50
2010,08,14,10,37,25.60
2010,08,14,10,38,25.70
2010,08,14,10,39,25.70
2010,08,14,10,40,25.70
2010,08,14,10,41,25.70
2010,08,14,10,42,25.70
2010,08,14,10,43,25.80
2010,08,14,10,44,25.80
2010,08,14,10,45,25.80
2010,08,14,10,46,25.80
2010,08,14,10,47,25.90
2010,08,14,10,48,25.80
2010,08,14,10,49,25.80
2010,08,14,10,50,25.80
2010,08,14,10,51,25.70
2010,08,14,10,52,25.70
2010,08,14,10,53,25.70
2010,08,14,10,54,25.70
2010,08,14,10,55,25.70
2010,08,14,10,56,25.70
2010,08,14,10,57,25.70
2010,08,14,10,58,25.70
2010,08,14,10,59,25.70
2010,08,14,11,00,25.70
2010,08,14,11,01,25.70
2010,08,14,11,02,25.80
2010,08,14,11,03,25.80
2010,08,14,11,04,25.90
2010,08,14,11,05,25.90
2010,08,14,11,06,25.90
2010,08,14,11,07,25.90
2010,08,14,11,08,26.00
2010,08,14,11,09,26.00
2010,08,14,11,10,26.10
2010,08,14,11,11,26.20
2010,08,14,11,12,26.30
2010,08,14,11,13,26.30
2010,08,14,11,14,26.30
2010,08,14,11,15,26.30
2010,08,14,11,16,26.30
2010,08,14,11,17,26.30
2010,08,14,11,18,26.30
2010,08,14,11,19,26.30
2010,08,14,11,20,26.30
2010,08,14,11,21,26.30
2010,08,14,11,22,26.40
2010,08,14,11,23,26.40
2010,08,14,11,24,26.50
2010,08,14,11,25,26.50
2010,08,14,11,26,26.50
2010,08,14,11,27,26.50
2010,08,14,11,28,26.40
2010,08,14,11,29,26.40
2010,08,14,11,30,26.30
2010,08,14,11,31,26.30
2010,08,14,11,32,26.40
2010,08,14,11,33,26.40
2010,08,14,11,34,26.40
2010,08,14,11,35,26.50
2010,08,14,11,36,26.50
2010,08,14,11,37,26.50
2010,08,14,11,38,26.60
2010,08,14,11,39,26.70
2010,08,14,11,40,26.80
2010,08,14,11,41,26.80
2010,08,14,11,42,26.80
2010,08,14,11,43,26.80
2010,08,14,11,44,26.90
2010,08,14,11,45,26.90
2010,08,14,11,46,26.90
2010,08,14,11,47,26.90
2010,08,14,11,48,27.00
2010,08,14,11,49,27.00
2010,08,14,11,50,27.00
2010,08,14,11,51,27.00
2010,08,14,11,52,27.00
2010,08,14,11,53,27.00
2010,08,14,11,54,27.00
2010,08,14,11,55,27.10
2010,08,14,11,56,27.10
2010,08,14,11,57,27.10
2010,08,14,11,58,27.10
2010,08,14,11,59,27.20
2010,08,14,12,00,27.20
2010,08,14,12,01,27.30
2010,08,14,12,02,27.20
2010,08,14,12,03,27.20
2010,08,14,12,04,27.20
2010,08,14,12,05,27.20
2010,08,14,12,06,27.20
2010,08,14,12,07,27.20
2010,08,14,12,08,27.20
2010,08,14,12,09,27.20
2010,08,14,12,10,27.10
2010,08,14,12,11,27.10
2010,08,14,12,12,27.10
2010,08,14,12,13,27.00
2010,08,14,12,14,26.90
2010,08,14,12,15,26.90
2010,08,14,12,16,26.80
2010,08,14,12,17,26.70
2010,08,14,12,18,26.70
2010,08,14,12,19,26.60
2010,08,14,12,20,26.60
2010,08,14,12,21,26.60
2010,08,14,12,22,26.60
2010,08,14,12,23,26.70
2010,08,14,12,24,26.80
2010,08,14,12,25,26.90
2010,08,14,12,26,27.00
2010,08,14,12,27,27.10
2010,08,14,12,28,27.10
2010,08,14,12,29,27.00
2010,08,14,12,30,26.90
2010,08,14,12,31,26.90
2010,08,14,12,32,26.80
2010,08,14,12,33,26.80
2010,08,14,12,34,26.90
2010,08,14,12,35,27.00
2010,08,14,12,36,27.00
2010,08,14,12,37,27.10
2010,08,14,12,38,27.10
2010,08,14,12,39,27.20
2010,08,14,12,40,27.20
2010,08,14,12,41,27.20
2010,08,14,12,42,27.20
2010,08,14,12,43,27.30
2010,08,14,12,44,27.40
2010,08,14,12,45,27.40
2010,08,14,12,46,27.40
2010,08,14,12,47,27.40
2010,08,14,12,48,27.50
2010,08,14,12,49,27.50
2010,08,14,12,50,27.60
2010,08,14,12,51,27.70
2010,08,14,12,52,27.80
2010,08,14,12,53,27.90
2010,08,14,12,54,27.90
2010,08,14,12,55,28.00
2010,08,14,12,56,28.10
2010,08,14,12,57,28.10
2010,08,14,12,58,28.10
2010,08,14,12,59,28.20
2010,08,14,13,00,28.20
2010,08,14,13,01,28.20
2010,08,14,13,02,28.30
2010,08,14,13,03,28.40
2010,08,14,13,04,28.40
2010,08,14,13,05,28.50
2010,08,14,13,06,28.60
2010,08,14,13,07,28.60
2010,08,14,13,08,28.50
2010,08,14,13,09,28.40
2010,08,14,13,10,28.40
2010,08,14,13,11,28.40
2010,08,14,13,12,28.30
2010,08,14,13,13,28.30
2010,08,14,13,14,28.40
2010,08,14,13,15,28.40
2010,08,14,13,16,28.40
2010,08,14,13,17,28.40
2010,08,14,13,18,28.30
2010,08,14,13,19,28.40
2010,08,14,13,20,28.30
2010,08,14,13,21,28.30
2010,08,14,13,22,28.30
2010,08,14,13,23,28.20
2010,08,14,13,24,28.20
2010,08,14,13,25,28.20
2010,08,14,13,26,28.20
2010,08,14,13,27,28.10
2010,08,14,13,28,28.10
2010,08,14,13,29,28.10
2010,08,14,13,30,28.10
2010,08,14,13,31,28.10
2010,08,14,13,32,28.10
2010,08,14,13,33,28.10
2010,08,14,13,34,28.20
2010,08,14,13,35,28.20
2010,08,14,13,36,28.30
2010,08,14,13,37,28.30
2010,08,14,13,38,28.40
2010,08,14,13,39,28.50
2010,08,14,13,40,28.50
2010,08,14,13,41,28.40
2010,08,14,13,42,28.30
2010,08,14,13,43,28.30
2010,08,14,13,44,28.20
2010,08,14,13,45,28.30
2010,08,14,13,46,28.30
2010,08,14,13,47,28.30
2010,08,14,13,48,28.30
2010,08,14,13,49,28.30
2010,08,14,13,50,28.30
2010,08,14,13,51,28.30
2010,08,14,13,52,28.30
2010,08,14,13,53,28.30
2010,08,14,13,54,28.30
2010,08,14,13,55,28.20
2010,08,14,13,56,28.20
2010,08,14,13,57,28.20
2010,08,14,13,58,28.20
2010,08,14,13,59,28.20
2010,08,14,14,00,28.20
2010,08,14,14,01,28.30
2010,08,14,14,02,28.30
2010,08,14,14,03,28.40
2010,08,14,14,04,28.50
2010,08,14,14,05,28.60
2010,08,14,14,06,28.60
2010,08,14,14,07,28.60
2010,08,14,14,08,28.70
2010,08,14,14,09,28.70
2010,08,14,14,10,28.70
2010,08,14,14,11,28.70
2010,08,14,14,12,28.70
2010,08,14,14,13,28.70
2010,08,14,14,14,28.80
2010,08,14,14,15,28.80
2010,08,14,14,16,28.80
2010,08,14,14,17,28.80
2010,08,14,14,18,28.90
2010,08,14,14,19,28.90
2010,08,14,14,20,29.00
2010,08,14,14,21,29.00
2010,08,14,14,22,29.00
2010,08,14,14,23,29.00
2010,08,14,14,24,29.00
2010,08,14,14,25,29.10
2010,08,14,14,26,29.10
2010,08,14,14,27,29.10
2010,08,14,14,28,29.10
2010,08,14,14,29,29.10
2010,08,14,14,30,29.20
2010,08,14,14,31,29.20
2010,08,14,14,32,29.20
2010,08,14,14,33,29.20
2010,08,14,14,34,29.20
2010,08,14,14,35,29.30
2010,08,14,14,36,29.30
2010,08,14,14,37,29.30
2010,08,14,14,38,29.30
2010,08,14,14,39,29.30
2010,08,14,14,40,29.40
2010,08,14,14,41,29.40
2010,08,14,14,42,29.50
2010,08,14,14,43,29.60
2010,08,14,14,44,29.60
2010,08,14,14,45,29.70
2010,08,14,14,46,29.70
2010,08,14,14,47,29.80
2010,08,14,14,48,29.80
2010,08,14,14,49,29.80
2010,08,14,14,50,29.80
2010,08,14,14,51,29.90
2010,08,14,14,52,29.90
2010,08,14,14,53,29.90
2010,08,14,14,54,29.90
2010,08,14,14,55,29.90
2010,08,14,14,56,30.00
2010,08,14,14,57,30.00
2010,08,14,14,58,30.10
2010,08,14,14,59,30.10
2010,08,14,15,00,30.10
2010,08,14,15,01,30.10
2010,08,14,15,02,30.20
2010,08,14,15,03,30.20
2010,08,14,15,04,30.20
2010,08,14,15,05,30.20
2010,08,14,15,06,30.20
2010,08,14,15,07,30.30
2010,08,14,15,08,30.30
2010,08,14,15,09,30.40
2010,08,14,15,10,30.40
2010,08,14,15,11,30.50
2010,08,14,15,12,30.50
2010,08,14,15,13,30.60
2010,08,14,15,14,30.60
2010,08,14,15,15,30.60
2010,08,14,15,16,30.50
2010,08,14,15,17,30.40
2010,08,14,15,18,30.30
2010,08,14,15,19,30.30
2010,08,14,15,20,30.20
2010,08,14,15,21,30.20
2010,08,14,15,22,30.30
2010,08,14,15,23,30.30
2010,08,14,15,24,30.30
2010,08,14,15,25,30.20
2010,08,14,15,26,30.20
2010,08,14,15,27,30.20
2010,08,14,15,28,30.30
2010,08,14,15,29,30.30
2010,08,14,15,30,30.30
2010,08,14,15,31,30.40
2010,08,14,15,32,30.40
2010,08,14,15,33,30.30
2010,08,14,15,34,30.30
2010,08,14,15,35,30.30
2010,08,14,15,36,30.20
2010,08,14,15,37,30.20
2010,08,14,15,38,30.20
2010,08,14,15,39,30.20
2010,08,14,15,40,30.10
2010,08,14,15,41,30.10
2010,08,14,15,42,30.10
2010,08,14,15,43,30.10
2010,08,14,15,44,30.20
2010,08,14,15,45,30.20
2010,08,14,15,46,30.10
2010,08,14,15,47,30.10
2010,08,14,15,48,30.10
2010,08,14,15,49,30.10
2010,08,14,15,50,30.20
2010,08,14,15,51,30.30
2010,08,14,15,52,30.30
2010,08,14,15,53,30.30
2010,08,14,15,54,30.30
2010,08,14,15,55,30.30
2010,08,14,15,56,30.40
2010,08,14,15,57,30.50
2010,08,14,15,58,30.50
2010,08,14,15,59,30.60
2010,08,14,16,00,30.70
2010,08,14,16,01,30.70
2010,08,14,16,02,30.80
2010,08,14,16,03,30.80
2010,08,14,16,04,30.90
2010,08,14,16,05,31.00
2010,08,14,16,06,31.10
2010,08,14,16,07,31.10
2010,08,14,16,08,31.20
2010,08,14,16,09,31.30
2010,08,14,16,10,31.30
2010,08,14,16,11,31.40
2010,08,14,16,12,31.40
2010,08,14,16,13,31.40
2010,08,14,16,14,31.50
2010,08,14,16,15,31.50
2010,08,14,16,16,31.60
2010,08,14,16,17,31.60
2010,08,14,16,18,31.60
2010,08,14,16,19,31.60
2010,08,14,16,20,31.60
2010,08,14,16,21,31.60
2010,08,14,16,22,31.60
2010,08,14,16,23,31.50
2010,08,14,16,24,31.40
2010,08,14,16,25,31.40
2010,08,14,16,26,31.40
2010,08,14,16,27,31.40
2010,08,14,16,28,31.30
2010,08,14,16,29,31.30
2010,08,14,16,30,31.30
2010,08,14,16,31,31.20
2010,08,14,16,32,31.30
2010,08,14,16,33,31.30
2010,08,14,16,34,31.40
2010,08,14,16,35,31.50
2010,08,14,16,36,31.50
2010,08,14,16,37,31.40
2010,08,14,16,38,31.40
2010,08,14,16,39,31.40
2010,08,14,16,40,31.50
2010,08,14,16,41,31.50
2010,08,14,16,42,31.60
2010,08,14,16,43,31.50
2010,08,14,16,44,31.50
2010,08,14,16,45,31.60
2010,08,14,16,46,31.60
2010,08,14,16,47,31.60
2010,08,14,16,48,31.60
2010,08,14,16,49,31.60
2010,08,14,16,50,31.50
2010,08,14,16,51,31.40
2010,08,14,16,52,31.30
2010,08,14,16,53,31.20
2010,08,14,16,54,31.20
2010,08,14,16,55,31.10
2010,08,14,16,56,31.10
2010,08,14,16,57,31.10
2010,08,14,16,58,31.10
2010,08,14,16,59,31.10
2010,08,14,17,00,31.10
2010,08,14,17,01,31.20
2010,08,14,17,02,31.30
2010,08,14,17,03,31.40
2010,08,14,17,04,31.50
2010,08,14,17,05,31.60
2010,08,14,17,06,31.70
2010,08,14,17,07,31.70
2010,08,14,17,08,31.70
2010,08,14,17,09,31.60
2010,08,14,17,10,31.60
2010,08,14,17,11,31.50
2010,08,14,17,12,31.60
2010,08,14,17,13,31.60
2010,08,14,17,14,31.70
2010,08,14,17,15,31.80
2010,08,14,17,16,31.90
2010,08,14,17,17,32.00
2010,08,14,17,18,32.10
2010,08,14,17,19,32.10